Jackson, MI

10:57 PM EST on February 18, 2018 (GMT -0500)
Jackson County-Reynolds

Weather History for KJXN - December, 2012

Change the Weather History Date:

Tuesday, December 4, 2012

  Actual Average Record
Temperature  
Mean Temperature 51 °F 32 °F  
Max Temperature 63 °F 39 °F 63 °F (2012)
Min Temperature 38 °F 25 °F -2 °F (2002)
Degree Days  
Heating Degree Days 14 33  
Month to date heating degree days 65 130  
Since 1 July heating degree days 1503 1534  
Cooling Degree Days 0 0  
Month to date cooling degree days 0 0  
Year to date cooling degree days 873 592  
Growing Degree Days 1 (Base 50)    
Moisture  
Dew Point 46 °F    
Average Humidity 79    
Maximum Humidity 100    
Minimum Humidity 58    
Precipitation  
Precipitation 0.45 in 0.07 in 0.56 in (1964)
Month to date precipitation 0.58 0.28  
Year to date precipitation 23.88 29.91  
Sea Level Pressure  
Sea Level Pressure 29.99 in    
Wind  
Wind Speed 12 mph (West)    
Max Wind Speed 22 mph    
Max Gust Speed 35 mph    
Visibility 7 miles    
Events Rain    
T = Trace of Precipitation, MM = Missing Value Source: NWS Daily Summary

Daily Weather History Graph

Daily Weather History Graph

Search for Another Location

Airport or City:

Trip Planner

Search our weather history database for the weather conditions in past years. The results will help you decide how hot, cold, wet, or windy it might be!

Date:

Astronomy

Dec. 04, 2012 Rise Set
Actual Time 7:50 AM EST 5:05 PM EST
Civil Twilight 7:19 AM EST 5:37 PM EST
Nautical Twilight 6:44 AM EST 6:12 PM EST
Astronomical Twilight 6:10 AM EST 6:46 PM EST
Moon 10:56 PM EST (12/4) 11:40 AM EST (12/4)
Length of Visible Light 10h 18m
Length of Day
9h 15m
Waning Gibbous, 69% of the Moon is Illuminated
Dec 4
Waning Gibbous
Dec 6
Last Quarter
Dec 13
New
Dec 20
First Quarter
Dec 28
Full

Hourly Weather History & Observations

Time (EST) Temp. Windchill Dew Point Humidity Pressure Visibility Wind Dir Wind Speed Gust Speed Precip Events Conditions
12:10 AM 62.6 °F - 53.6 °F 72% 29.91 in 10.0 mi SSW 19.6 mph 28.8 mph N/A   Overcast
12:56 AM 63.0 °F - 54.0 °F 72% 29.91 in 10.0 mi SW 21.9 mph 34.5 mph N/A   Overcast
1:56 AM 63.0 °F - 55.0 °F 75% 29.90 in 8.0 mi SW 16.1 mph 28.8 mph N/A   Overcast
2:33 AM 62.6 °F - 55.4 °F 77% 29.91 in 10.0 mi SW 18.4 mph 24.2 mph 0.01 in   Overcast
2:56 AM 62.1 °F - 55.0 °F 78% 29.91 in 10.0 mi SW 16.1 mph 23.0 mph 0.01 in   Overcast
3:56 AM 61.0 °F - 54.0 °F 78% 29.90 in 10.0 mi SSW 11.5 mph - N/A   Overcast
4:56 AM 57.9 °F - 54.0 °F 87% 29.90 in 9.0 mi SSW 9.2 mph - 0.05 in   Overcast
5:56 AM 57.9 °F - 54.0 °F 87% 29.91 in 4.0 mi West 4.6 mph - 0.02 in Rain Rain
6:04 AM 57.2 °F - 55.4 °F 94% 29.91 in 1.8 mi West 5.8 mph - 0.04 in Rain Heavy Rain
6:11 AM 57.2 °F - 55.4 °F 94% 29.91 in 2.0 mi SW 6.9 mph - 0.06 in Rain Rain
6:22 AM 57.2 °F - 55.4 °F 94% 29.91 in 3.0 mi WSW 10.4 mph - 0.07 in Rain Light Rain
6:28 AM 57.2 °F - 55.4 °F 94% 29.92 in 2.5 mi West 11.5 mph - 0.09 in Rain Rain
6:53 AM 53.6 °F - 51.8 °F 94% 29.95 in 3.0 mi WNW 8.1 mph 17.3 mph 0.13 in Rain Light Rain
6:56 AM 53.1 °F - 52.0 °F 96% 29.96 in 2.5 mi NW 10.4 mph - 0.15 in Rain Rain
7:04 AM 51.8 °F - 50.0 °F 94% 29.96 in 1.8 mi NNW 5.8 mph 20.7 mph 0.04 in Rain Rain
7:06 AM 51.8 °F - 50.0 °F 94% 29.96 in 2.0 mi NW 6.9 mph 20.7 mph 0.04 in Rain Rain
7:09 AM 51.8 °F - 50.0 °F 94% 29.96 in 3.0 mi NW 8.1 mph - 0.04 in Rain Light Rain
7:40 AM 51.8 °F - 50.0 °F 94% 30.00 in 2.5 mi West 10.4 mph - 0.09 in Rain Heavy Rain
7:56 AM 48.9 °F - 48.0 °F 97% 29.99 in 2.5 mi NW 12.7 mph 18.4 mph 0.15 in Rain Rain
8:11 AM 48.2 °F - 48.2 °F 100% 29.99 in 4.0 mi WNW 5.8 mph - 0.02 in Rain Light Rain
8:46 AM 48.2 °F - 46.4 °F 93% 30.00 in 4.0 mi WNW 3.5 mph - 0.04 in Rain Light Rain
8:56 AM 48.0 °F - 45.0 °F 89% 30.01 in 4.0 mi NW 5.8 mph - 0.04 in   Overcast
9:56 AM 46.9 °F - 44.1 °F 90% 30.01 in 6.0 mi Calm Calm - 0.01 in Rain Light Rain
10:56 AM 46.9 °F - 44.1 °F 90% 30.03 in 7.0 mi SW 4.6 mph - 0.01 in Rain Light Rain
11:56 AM 48.0 °F - 43.0 °F 83% 30.01 in 10.0 mi WSW 5.8 mph - 0.01 in   Overcast
12:56 PM 48.0 °F - 42.1 °F 80% 29.99 in 10.0 mi West 8.1 mph - N/A   Overcast
1:56 PM 48.0 °F - 41.0 °F 77% 30.00 in 10.0 mi West 8.1 mph - N/A   Partly Cloudy
2:56 PM 48.9 °F - 39.0 °F 69% 30.00 in 10.0 mi West 8.1 mph - N/A   Mostly Cloudy
3:56 PM 48.9 °F - 39.0 °F 69% 30.02 in 10.0 mi West 6.9 mph - N/A   Clear
4:56 PM 46.9 °F - 36.0 °F 66% 30.04 in 10.0 mi West 5.8 mph - N/A   Clear
5:56 PM 46.9 °F - 32.0 °F 56% 30.06 in 10.0 mi West 9.2 mph - N/A   Clear
6:56 PM 45.0 °F 40.6 °F 30.9 °F 58% 30.07 in 10.0 mi West 8.1 mph - N/A   Clear
7:56 PM 43.0 °F 38.8 °F 30.9 °F 62% 30.09 in 10.0 mi WSW 6.9 mph - N/A   Clear
8:56 PM 43.0 °F 38.8 °F 32.0 °F 65% 30.09 in 10.0 mi West 6.9 mph - N/A   Clear
9:56 PM 42.1 °F 37.1 °F 33.1 °F 70% 30.11 in 10.0 mi West 8.1 mph - N/A   Clear
10:56 PM 39.9 °F 35.1 °F 32.0 °F 73% 30.13 in 10.0 mi WNW 6.9 mph - N/A   Clear
11:56 PM 39.0 °F 33.4 °F 28.9 °F 67% 30.16 in 10.0 mi NW 8.1 mph - N/A   Clear